格洛纳斯K-11L COSMOS 2471 [GLONASS-K]

导读 | 豆包AI

COSMOS 2471(GLONASS)是由独联体(CIS)发射的格洛纳斯全球导航卫星,于2011年2月26日发射入轨。它隶属于俄罗斯GLONASS导航系统,该系统是前苏联启动、俄罗斯后续运营的全球卫星导航工程,和GPS功能类似。该卫星采用三轴稳定设计,搭载精密铯钟作为频率基准,承担全球范围定位导航服务,是GLONASS星座组网的重要组成,助力提升系统全球覆盖与定位精度。

Basic Information
目录编号:
37372
目录名称:
COSMOS 2471 (GLONASS)
国际标识:
2011-009A
轨道中心:
EARTH
卫星名称:
格洛纳斯K-11L
卫星全名:
格洛纳斯K-11L COSMOS 2471 [GLONASS-K]
卫星状态:
在轨 (已飞行5543 天)
发射日期:
2011-02-26 UTC
国别 :
俄罗斯(独联体) (CIS)
星等 :
--
Orbit Information
数据来源 国际轨道数据 AOE轨道数据
星历时间 2026-04-30T20:59:35+0800
1天前
查看轨道信息
2026-04-27T16:00:00+0800
4天前
查看轨道信息
半长轴 25523.27km 25523.246km
偏心率 0.0008358 0.0008396
轨道倾角 65.436° 65.437°
近地点辐角 330.457° 330.248°
升交点赤经 316.097° 316.206°
平近点角 216.124° 277.444°
近地点 19123.8km 19123.679km
远地点 19166.466km 19166.539km
周期 676.339分钟 676.338分钟
每日圈数 2.129111 2.129114
Detailed Information
平衡模式:
三轴稳定
覆盖范围:
全球
运营商:
列舍特涅夫卫星信息系统
运营商所在国:
俄罗斯
制造商(研发单位):
列舍特涅夫卫星信息系统
制造商所在国:
俄罗斯
使用方式:
暂无
Satellite Introduction
格洛纳斯(GLONASS )是苏联/俄罗斯研制卫星导航系统。标准配置为24颗卫星,其中18颗卫星就能保证该系统为俄罗斯境内用户提供全部服务。该卫星已退役。
2D Orbit Map
3D Orbit Map
Orbit Altitude Analysis Chart
Orbit Inclination Analysis Chart
Orbit Comprehensive Analysis Chart
View Comprehensive Chart